TimeCST,TemperatureF,Dew PointF,Humidity,Sea Level PressureIn,VisibilityMPH,Wind Direction,Wind SpeedMPH,Gust SpeedMPH,PrecipitationIn,Events,Conditions,WindDirDegrees,DateUTC
12:08 AM,37.0,14.0,39,-9999,-9999.0,North,4.6,-,N/A,,Unknown,10,2012-12-07 06:08:00
12:28 AM,37.0,15.1,41,-9999,-9999.0,NNE,3.5,-,N/A,,Unknown,20,2012-12-07 06:28:00
12:48 AM,37.0,15.1,41,-9999,-9999.0,North,3.5,-,N/A,,Unknown,360,2012-12-07 06:48:00
1:08 AM,37.0,15.1,41,-9999,-9999.0,North,2.3,-,N/A,,Unknown,10,2012-12-07 07:08:00
1:28 AM,37.0,14.0,39,-9999,-9999.0,North,2.3,-,N/A,,Unknown,360,2012-12-07 07:28:00
1:48 AM,37.0,14.0,39,-9999,-9999.0,North,2.3,-,N/A,,Unknown,350,2012-12-07 07:48:00
2:08 AM,37.0,14.0,39,-9999,-9999.0,North,1.2,-,N/A,,Unknown,10,2012-12-07 08:08:00
2:28 AM,37.0,14.0,39,-9999,-9999.0,North,1.2,-,N/A,,Unknown,360,2012-12-07 08:28:00
2:48 AM,36.0,14.0,41,-9999,-9999.0,North,1.2,-,N/A,,Unknown,360,2012-12-07 08:48:00
3:08 AM,35.1,13.1,40,-9999,-9999.0,Calm,Calm,-,N/A,,Unknown,0,2012-12-07 09:08:00
3:28 AM,35.1,13.1,40,-9999,-9999.0,NNW,1.2,-,N/A,,Unknown,340,2012-12-07 09:28:00
3:48 AM,34.0,13.1,42,-9999,-9999.0,NNW,1.2,-,N/A,,Unknown,330,2012-12-07 09:48:00
4:08 AM,32.0,13.1,46,-9999,-9999.0,West,2.3,-,N/A,,Unknown,270,2012-12-07 10:08:00
4:28 AM,32.0,13.1,46,-9999,-9999.0,West,2.3,-,N/A,,Unknown,270,2012-12-07 10:28:00
4:48 AM,30.9,12.0,46,-9999,-9999.0,West,2.3,-,N/A,,Unknown,280,2012-12-07 10:48:00
5:08 AM,30.0,13.1,49,-9999,-9999.0,West,3.5,-,N/A,,Unknown,270,2012-12-07 11:08:00
5:28 AM,30.0,12.0,47,-9999,-9999.0,SW,3.5,-,N/A,,Unknown,220,2012-12-07 11:28:00
5:48 AM,32.0,13.1,46,-9999,-9999.0,SW,2.3,-,N/A,,Unknown,220,2012-12-07 11:48:00
6:08 AM,32.0,13.1,46,-9999,-9999.0,SW,1.2,-,N/A,,Unknown,230,2012-12-07 12:08:00
6:28 AM,33.1,13.1,44,-9999,-9999.0,SSE,2.3,-,N/A,,Unknown,150,2012-12-07 12:28:00
6:48 AM,32.0,14.0,48,-9999,-9999.0,SSE,2.3,-,N/A,,Unknown,150,2012-12-07 12:48:00
7:08 AM,32.0,13.1,46,-9999,-9999.0,SSE,3.5,-,N/A,,Unknown,150,2012-12-07 13:08:00
7:28 AM,30.9,14.0,50,-9999,-9999.0,SSE,4.6,-,N/A,,Unknown,160,2012-12-07 13:28:00
7:48 AM,30.9,14.0,50,-9999,-9999.0,South,3.5,-,N/A,,Unknown,180,2012-12-07 13:48:00
8:08 AM,32.0,13.1,46,-9999,-9999.0,South,6.9,-,N/A,,Unknown,180,2012-12-07 14:08:00
8:28 AM,33.1,15.1,48,-9999,-9999.0,South,5.8,-,N/A,,Unknown,180,2012-12-07 14:28:00
8:48 AM,33.1,16.2,50,-9999,-9999.0,South,4.6,-,N/A,,Unknown,170,2012-12-07 14:48:00
9:08 AM,36.0,16.2,45,-9999,-9999.0,South,8.1,-,N/A,,Unknown,190,2012-12-07 15:08:00
9:28 AM,37.9,17.1,43,-9999,-9999.0,South,6.9,-,N/A,,Unknown,180,2012-12-07 15:28:00
9:48 AM,39.9,19.0,43,-9999,-9999.0,South,6.9,-,N/A,,Unknown,180,2012-12-07 15:48:00
10:08 AM,41.0,19.0,41,-9999,-9999.0,South,9.2,-,N/A,,Unknown,170,2012-12-07 16:08:00
10:28 AM,42.1,20.1,42,-9999,-9999.0,South,5.8,-,N/A,,Unknown,170,2012-12-07 16:28:00
10:48 AM,44.1,20.1,39,-9999,-9999.0,SSW,5.8,-,N/A,,Unknown,200,2012-12-07 16:48:00
11:08 AM,46.0,20.1,36,-9999,-9999.0,South,8.1,-,N/A,,Unknown,190,2012-12-07 17:08:00
11:28 AM,46.9,20.1,35,-9999,-9999.0,SSW,11.5,-,N/A,,Unknown,210,2012-12-07 17:28:00
11:48 AM,48.0,21.0,34,-9999,-9999.0,SSW,6.9,-,N/A,,Unknown,200,2012-12-07 17:48:00
12:08 PM,48.9,23.0,36,-9999,-9999.0,South,5.8,-,N/A,,Unknown,190,2012-12-07 18:08:00
12:28 PM,50.0,23.0,35,-9999,-9999.0,South,4.6,-,N/A,,Unknown,190,2012-12-07 18:28:00
12:48 PM,52.0,25.2,35,-9999,-9999.0,SW,4.6,-,N/A,,Unknown,230,2012-12-07 18:48:00
1:08 PM,54.0,25.2,33,-9999,-9999.0,SW,4.6,-,N/A,,Unknown,220,2012-12-07 19:08:00
1:28 PM,54.0,26.1,34,-9999,-9999.0,SW,3.5,-,N/A,,Unknown,220,2012-12-07 19:28:00
1:48 PM,55.0,27.1,34,-9999,-9999.0,WSW,1.2,-,N/A,,Unknown,240,2012-12-07 19:48:00
2:08 PM,55.0,28.0,35,-9999,-9999.0,NW,2.3,-,N/A,,Unknown,320,2012-12-07 20:08:00
2:28 PM,55.9,27.1,33,-9999,-9999.0,NNW,3.5,-,N/A,,Unknown,330,2012-12-07 20:28:00
2:48 PM,55.9,27.1,33,-9999,-9999.0,NW,4.6,-,N/A,,Unknown,320,2012-12-07 20:48:00
3:08 PM,55.9,26.1,32,-9999,-9999.0,North,9.2,-,N/A,,Unknown,350,2012-12-07 21:08:00
3:28 PM,55.0,26.1,33,-9999,-9999.0,North,6.9,-,N/A,,Unknown,360,2012-12-07 21:28:00
3:48 PM,55.0,25.2,32,-9999,-9999.0,North,8.1,-,N/A,,Unknown,350,2012-12-07 21:48:00
4:08 PM,54.0,26.1,34,-9999,-9999.0,North,4.6,-,N/A,,Unknown,360,2012-12-07 22:08:00
4:28 PM,54.0,25.2,33,-9999,-9999.0,North,6.9,-,N/A,,Unknown,10,2012-12-07 22:28:00
4:48 PM,53.1,25.2,34,-9999,-9999.0,NNE,6.9,-,N/A,,Unknown,20,2012-12-07 22:48:00
5:08 PM,50.0,25.2,38,-9999,-9999.0,NE,4.6,-,N/A,,Unknown,40,2012-12-07 23:08:00
5:28 PM,48.0,23.0,37,-9999,-9999.0,NNE,5.8,-,N/A,,Unknown,30,2012-12-07 23:28:00
5:48 PM,44.1,21.0,40,-9999,-9999.0,NNE,6.9,-,N/A,,Unknown,20,2012-12-07 23:48:00
6:08 PM,45.0,22.1,40,-9999,-9999.0,North,8.1,-,N/A,,Unknown,10,2012-12-08 00:08:00
6:28 PM,43.0,22.1,44,-9999,-9999.0,NNE,8.1,-,N/A,,Unknown,20,2012-12-08 00:28:00
6:48 PM,41.0,21.0,45,-9999,-9999.0,NE,6.9,-,N/A,,Unknown,50,2012-12-08 00:48:00
7:08 PM,39.0,20.1,47,-9999,-9999.0,ENE,8.1,-,N/A,,Unknown,60,2012-12-08 01:08:00
7:28 PM,37.9,20.1,49,-9999,-9999.0,ENE,6.9,-,N/A,,Unknown,60,2012-12-08 01:28:00
7:48 PM,37.0,19.0,48,-9999,-9999.0,ENE,5.8,-,N/A,,Unknown,60,2012-12-08 01:48:00
8:08 PM,36.0,19.0,50,-9999,-9999.0,NE,3.5,-,N/A,,Unknown,50,2012-12-08 02:08:00
8:28 PM,36.0,18.1,48,-9999,-9999.0,ENE,5.8,-,N/A,,Unknown,70,2012-12-08 02:28:00
8:48 PM,36.0,19.0,50,-9999,-9999.0,ENE,5.8,-,N/A,,Unknown,60,2012-12-08 02:48:00
9:08 PM,36.0,19.0,50,-9999,-9999.0,ENE,5.8,-,N/A,,Unknown,60,2012-12-08 03:08:00
9:28 PM,36.0,20.1,53,-9999,-9999.0,ENE,4.6,-,N/A,,Unknown,60,2012-12-08 03:28:00
9:48 PM,37.0,20.1,50,-9999,-9999.0,NE,4.6,-,N/A,,Unknown,40,2012-12-08 03:48:00
10:08 PM,37.0,20.1,50,-9999,-9999.0,North,4.6,-,N/A,,Unknown,360,2012-12-08 04:08:00
10:28 PM,37.0,19.0,48,-9999,-9999.0,North,5.8,-,N/A,,Unknown,360,2012-12-08 04:28:00
10:48 PM,36.0,19.0,50,-9999,-9999.0,NNW,4.6,-,N/A,,Unknown,340,2012-12-08 04:48:00
11:08 PM,34.0,18.1,52,-9999,-9999.0,NW,4.6,-,N/A,,Unknown,320,2012-12-08 05:08:00
11:28 PM,33.1,17.1,52,-9999,-9999.0,NW,4.6,-,N/A,,Unknown,320,2012-12-08 05:28:00
11:48 PM,32.0,17.1,54,-9999,-9999.0,NNW,8.1,-,N/A,,Unknown,340,2012-12-08 05:48:00